Theta_e
308 309 308 308 308 308 307 307 306 306 306 306 305 305 304 304 304 304 304 305 306 306 307 308 309 309 309 309 309 310 311 313 315 317 318 320 321 322 323 324 324 324 324 325 325 326 327 327 328 328 328 329 328 328 327 327 327 327 328 328 328 328 327
309 309 309 308 308 308 307 307 307 306 306 306 305 305 305 305 304 304 304 304 304 304 304 304 304 304 304 305 305 305 306 307 308 311 313 315 316 317 319 320 321 322 322 323 323 324 325 325 326 326 326 327 327 328 328 328 328 328 328 328 328 328 328
309 309 309 309 309 308 308 307 307 307 307 306 306 305 305 305 305 305 305 304 304 304 304 304 304 304 304 304 304 304 304 304 304 305 307 310 311 313 315 316 316 316 318 319 319 321 323 323 323 323 324 324 324 325 325 326 327 327 327 328 328 328 328
309 309 309 309 309 309 309 308 307 307 307 307 306 306 305 305 305 305 305 305 304 304 304 304 304 304 304 304 304 304 303 303 303 303 303 304 306 308 310 312 313 314 315 315 315 317 318 320 321 321 322 322 322 321 321 321 322 323 324 325 326 328 328
310 309 309 309 310 309 309 309 308 308 307 307 307 306 306 305 305 305 305 305 305 305 304 304 305 305 305 305 305 305 304 303 303 302 302 302 303 304 305 306 309 312 314 315 315 315 316 317 317 318 318 318 318 318 318 319 319 319 320 321 322 323 325
310 310 310 310 310 310 310 310 309 308 308 307 307 307 306 306 306 305 305 305 305 305 305 304 304 304 305 305 304 305 305 304 304 303 303 302 302 302 302 303 304 306 310 312 314 315 315 316 316 315 315 315 315 314 315 317 318 318 318 319 320 320 321
311 310 310 310 310 310 310 310 310 309 308 308 307 307 307 306 306 306 306 306 305 305 305 304 304 304 304 304 304 304 304 304 304 304 303 303 303 302 302 302 302 302 304 306 309 311 313 314 314 315 314 314 313 312 312 313 314 316 316 317 318 319 320
311 311 311 311 310 311 310 310 310 310 309 309 308 308 307 307 307 306 306 306 306 305 305 304 304 304 304 304 304 304 304 304 304 303 303 303 303 303 303 303 302 302 302 303 304 306 308 311 312 313 314 314 313 312 311 310 310 311 312 314 317 318 320
312 312 312 311 311 311 311 311 310 310 310 310 309 308 308 308 307 307 306 306 306 306 306 305 304 304 304 304 304 304 304 303 303 303 303 303 303 303 303 303 303 303 303 303 303 303 304 306 310 312 313 313 314 314 313 312 310 309 308 310 313 315 317
312 311 311 312 311 311 311 311 311 311 311 310 310 309 309 308 308 307 307 306 306 306 306 305 304 304 304 304 304 304 304 303 302 302 302 302 302 302 302 302 303 304 304 304 304 304 303 304 307 310 312 313 313 314 314 314 313 311 309 308 309 311 312
311 311 311 311 312 311 311 311 311 311 311 311 310 310 309 308 308 307 307 306 306 306 306 306 304 304 304 304 304 304 304 303 302 302 302 302 302 302 302 302 302 302 303 304 305 305 305 305 305 308 311 312 313 313 313 314 313 311 310 311 310 310 310
311 311 312 312 312 312 311 311 310 310 311 311 310 310 309 309 308 308 307 307 307 306 306 306 305 304 303 303 304 304 303 303 302 302 302 301 301 301 301 301 301 301 302 303 304 305 306 306 305 306 308 310 312 312 313 313 313 311 311 312 312 311 311
313 312 312 313 313 313 311 311 310 310 311 311 311 310 310 309 309 308 308 307 307 307 307 306 305 304 303 304 304 303 303 303 302 302 301 301 301 301 300 300 300 301 301 301 302 303 305 306 306 306 306 307 308 310 311 312 312 312 310 312 313 312 311
317 315 315 315 315 314 313 312 310 310 311 311 311 311 311 310 309 308 308 308 307 307 307 306 305 303 303 303 303 303 303 302 302 301 301 301 301 300 300 300 300 300 300 300 301 301 302 304 305 306 306 306 306 307 309 309 310 311 309 309 311 312 312
320 319 318 317 317 316 314 313 312 311 312 312 312 312 312 311 310 309 309 308 308 307 307 306 304 303 303 303 303 303 302 302 301 301 300 300 300 300 300 300 300 299 299 299 299 300 300 301 303 304 305 306 306 306 306 307 308 309 307 306 309 310 311
321 321 320 320 319 317 316 314 313 312 312 313 313 313 313 312 311 309 309 309 308 307 307 306 304 303 303 303 303 302 302 301 300 300 299 299 299 299 299 299 299 299 299 299 298 298 299 299 301 302 303 304 305 306 306 306 307 307 307 306 306 308 310
321 322 321 321 320 319 318 317 315 315 314 314 314 314 314 313 311 310 310 310 308 307 307 305 303 302 303 303 303 302 301 300 300 299 299 299 299 299 299 299 298 298 298 298 298 297 297 297 299 300 301 302 303 305 306 306 306 307 307 306 305 307 308
321 322 322 322 321 321 320 319 318 318 317 316 315 315 314 313 311 311 311 310 308 307 306 303 302 303 302 302 302 301 301 300 299 299 299 299 299 298 298 298 298 298 297 297 297 297 297 297 297 298 300 301 302 303 304 305 306 306 307 307 306 305 306
321 321 321 322 322 322 322 321 321 320 319 318 316 315 314 313 311 311 311 310 308 306 304 302 302 302 302 301 301 300 300 300 299 299 299 299 298 298 298 298 298 298 297 296 296 296 297 298 298 297 298 299 301 302 303 303 304 305 306 306 306 306 306
322 321 321 322 322 322 322 322 322 321 320 319 317 315 314 312 312 312 311 309 307 305 303 302 302 302 302 302 301 301 300 299 299 299 299 299 299 298 298 298 298 297 296 296 295 296 297 298 299 299 298 298 299 300 301 302 303 303 304 305 305 306 306
323 322 322 322 322 323 322 321 322 322 321 320 317 315 313 313 312 311 310 309 306 303 302 303 303 303 302 302 302 301 300 300 299 299 299 299 299 298 298 298 297 296 295 295 295 296 298 299 299 299 299 299 299 298 299 300 301 302 302 303 304 305 306
324 323 323 322 322 323 321 320 320 320 320 319 317 315 313 313 312 311 310 307 304 302 303 303 303 303 303 303 302 301 301 300 300 299 299 299 299 298 298 297 295 295 294 295 296 297 298 299 299 299 299 299 299 299 299 299 299 300 301 302 302 303 304
322 322 322 322 323 323 321 319 319 318 318 318 316 314 313 312 311 310 308 304 303 303 303 303 304 304 303 303 302 302 301 300 300 300 300 299 298 297 295 294 294 294 295 295 296 297 298 299 299 299 299 299 299 299 298 298 299 299 299 300 301 301 302
319 320 320 321 322 323 322 321 319 318 317 316 315 314 313 312 311 308 305 303 303 303 303 304 304 304 303 303 302 301 301 300 300 299 299 297 295 294 293 294 294 294 295 296 296 297 298 299 299 300 299 300 299 298 298 298 298 298 298 299 299 300 300
314 317 319 321 322 323 322 320 319 318 317 315 314 313 312 311 308 305 303 303 303 304 304 304 304 303 303 302 302 301 300 300 299 297 295 294 293 293 293 294 294 295 295 296 297 297 298 298 299 299 300 300 300 299 298 298 297 297 298 298 298 299 299
309 312 316 319 322 322 321 319 318 317 316 314 313 312 310 308 306 304 304 304 304 304 305 304 304 303 302 302 301 301 299 297 295 293 292 292 293 293 294 294 294 295 295 296 296 297 298 298 298 299 299 299 300 300 299 298 297 297 297 297 297 298 299
307 309 312 317 320 321 319 318 317 316 314 313 312 311 308 306 305 304 304 305 305 305 304 304 303 302 302 301 300 299 296 294 292 292 292 293 293 294 294 294 295 295 295 296 296 297 297 297 298 298 299 299 299 299 299 299 298 297 297 297 297 297 298
306 308 311 315 319 319 318 317 316 314 313 313 311 309 306 304 304 305 305 305 305 304 303 303 301 301 300 299 297 295 293 292 292 292 293 294 294 294 295 295 295 295 296 296 296 296 297 297 297 298 298 298 299 299 299 298 298 298 297 297 297 297 297
306 308 311 315 318 318 317 316 315 313 313 311 309 306 304 304 305 306 305 305 304 302 301 300 299 298 296 295 293 292 292 292 293 294 294 294 295 295 295 295 295 296 296 296 296 296 296 296 296 297 297 297 298 298 298 298 297 297 297 297 296 297 296
306 308 312 315 317 317 317 316 314 312 311 309 306 305 305 305 305 305 304 303 302 301 299 297 296 294 293 292 292 292 293 293 294 294 294 295 295 295 295 296 295 296 296 296 296 296 296 295 295 295 296 296 296 297 297 297 297 297 296 296 296 296 296
306 309 313 315 316 317 316 314 313 311 309 306 305 305 306 305 304 303 302 301 299 297 295 293 292 292 292 292 292 293 293 293 294 294 294 295 295 295 295 295 295 295 295 295 295 294 294 294 294 294 294 294 295 296 296 295 296 296 296 296 295 295 295
308 310 313 315 315 315 314 313 312 310 307 306 305 305 304 303 302 301 299 297 295 293 292 292 292 292 292 292 292 292 293 293 293 294 294 294 295 295 295 295 294 294 294 294 293 293 293 293 293 293 293 292 293 294 294 294 294 294 294 294 294 295 295
310 312 314 314 314 314 311 309 307 306 304 304 304 303 301 300 298 297 295 293 292 291 292 292 292 292 292 292 292 292 293 293 293 294 294 294 294 294 293 293 293 293 293 293 293 293 292 292 292 292 291 290 291 292 292 291 291 292 292 293 293 294 294
312 312 313 313 313 312 309 306 304 303 303 302 301 299 297 295 294 293 292 291 291 291 292 292 292 291 291 291 292 292 293 293 293 293 293 293 292 292 292 292 292 293 293 293 292 292 292 292 291 290 290 290 290 290 290 290 290 290 290 291 291 292 293
312 311 311 311 309 308 306 304 303 302 300 298 296 295 294 292 292 291 291 291 291 291 291 291 291 291 291 291 292 292 292 293 292 292 292 292 292 292 292 292 292 292 292 292 292 291 291 291 290 290 290 290 290 290 289 289 289 289 289 289 290 290 291
310 309 309 307 306 304 302 301 299 297 296 295 293 293 292 291 291 291 291 291 291 291 291 291 291 291 291 291 291 292 292 292 292 292 292 292 292 292 292 292 292 292 292 292 291 291 291 291 290 290 290 290 290 290 290 289 289 289 289 289 289 289 290
308 307 305 304 303 300 298 298 297 295 295 294 293 292 291 291 291 292 292 292 292 292 291 291 291 290 290 291 291 291 292 292 292 292 292 292 292 291 291 291 292 292 291 291 291 291 291 291 291 291 291 291 291 291 290 289 289 289 289 289 289 289 290
Wind_Speed
7 6 5 5 5 5 6 8 8 8 9 10 11 11 11 10 9 8 6 4 3 1 1 2 3 4 5 6 7 7 7 7 7 7 8 8 7 7 7 7 8 8 8 7 7 7 8 10 13 13 13 13 14 16 17 17 17 17 17 17 17 18 19
9 8 7 5 5 4 5 6 6 7 7 8 8 9 10 10 9 9 8 7 5 4 4 4 3 3 4 4 6 7 8 8 9 9 9 10 10 10 10 10 10 10 9 9 9 8 9 11 13 15 16 16 17 17 17 18 19 18 18 17 17 17 17
10 9 8 7 6 5 4 4 4 5 5 6 6 7 8 8 7 7 7 6 5 4 4 4 3 3 3 3 4 5 7 7 9 10 10 11 11 12 12 12 13 12 12 12 11 10 10 10 12 13 14 15 17 18 18 18 20 20 21 21 21 20 20
11 9 8 7 6 5 5 4 3 3 3 4 4 5 5 6 5 5 5 5 4 4 4 3 3 3 3 4 5 5 5 6 7 9 10 11 12 12 13 13 14 14 14 14 14 13 13 12 13 14 14 14 16 18 18 17 18 20 20 21 22 23 23
12 10 7 6 6 5 6 6 5 4 3 3 3 3 4 4 4 4 4 3 3 4 4 4 5 5 5 6 7 7 6 6 6 6 8 10 12 13 13 14 14 14 14 15 15 15 15 16 17 19 19 18 19 21 20 18 18 19 19 19 21 22 23
13 12 9 7 7 7 7 7 6 5 5 4 3 3 3 2 2 2 2 2 3 4 5 5 5 5 6 7 8 8 9 8 7 7 7 8 9 10 11 13 14 14 14 15 16 16 17 18 19 21 22 22 22 24 23 21 21 20 19 18 19 20 21
15 14 12 9 9 9 9 8 7 6 6 6 5 5 4 3 3 2 1 1 2 4 5 5 6 6 6 7 7 8 9 9 9 9 8 8 8 9 9 10 11 13 13 14 15 16 17 19 19 20 22 23 24 25 25 23 23 23 22 20 19 19 19
17 16 14 12 11 11 11 10 8 8 8 7 8 8 7 6 5 4 3 3 3 4 5 6 6 7 7 7 8 8 9 9 9 9 9 8 8 9 9 10 10 10 12 13 14 15 16 18 19 20 21 21 22 23 23 23 23 24 24 23 22 20 18
19 18 17 15 14 13 12 12 10 9 9 9 10 10 9 8 7 6 5 5 5 5 6 7 7 7 7 8 8 9 9 10 10 10 10 9 9 9 9 10 11 10 11 11 12 13 14 15 17 18 18 18 19 21 21 22 23 24 24 23 23 22 19
21 20 19 18 16 15 14 13 12 12 11 12 12 12 11 10 9 8 7 7 7 7 8 8 8 8 8 9 10 10 10 10 10 10 10 10 10 10 10 10 11 11 12 11 11 12 12 14 15 15 16 16 17 19 20 21 23 24 23 22 22 22 21
24 22 21 19 18 17 16 16 15 14 14 14 14 14 13 12 11 10 9 9 9 10 10 10 10 10 10 10 11 12 12 12 12 12 12 11 11 11 11 11 11 11 12 12 12 11 12 13 14 15 15 15 16 18 19 22 25 26 24 21 20 21 22
26 24 23 22 20 19 18 18 17 16 15 15 16 16 15 13 12 12 12 12 12 12 12 11 12 11 11 11 12 13 14 14 14 14 14 13 13 13 12 12 12 12 12 12 12 12 12 12 13 15 16 17 17 17 18 21 25 28 25 22 22 21 21
28 27 25 24 23 21 20 20 19 19 18 17 18 18 17 15 15 14 14 14 14 14 13 13 13 12 12 12 13 13 14 15 16 16 16 16 16 16 15 14 14 13 14 14 14 14 14 14 14 14 15 17 18 18 19 20 24 29 30 27 27 26 24
27 28 28 26 25 23 22 21 21 20 20 20 20 20 19 18 17 16 16 17 16 15 15 14 14 13 12 13 13 13 15 15 16 16 17 17 18 18 18 18 17 16 16 16 16 16 16 16 16 16 16 17 18 18 19 21 24 30 34 31 29 29 27
27 27 28 28 27 25 24 23 22 23 22 22 22 21 20 19 18 18 19 19 18 17 16 16 15 14 13 14 14 14 15 16 16 17 17 18 19 19 19 20 19 19 19 20 19 19 19 18 18 18 18 18 19 19 19 21 23 28 34 34 32 30 29
30 29 29 29 29 28 26 25 25 24 24 23 23 22 21 21 20 20 20 20 19 18 18 17 15 14 15 15 15 16 16 16 17 17 17 18 19 20 20 21 21 22 22 23 23 23 23 22 20 20 20 20 20 20 20 20 22 25 30 34 33 32 31
31 32 32 31 31 30 29 28 27 26 26 25 24 23 22 21 21 22 21 21 20 20 18 17 16 15 15 16 16 17 18 18 18 18 18 19 20 21 22 22 23 24 24 25 25 26 26 26 24 23 22 21 21 22 22 21 22 23 27 32 33 33 32
32 32 32 32 32 32 31 31 30 28 27 26 25 24 23 22 22 22 22 21 21 20 18 17 16 15 15 16 17 18 18 19 19 20 21 21 22 23 24 25 26 26 27 27 27 27 27 27 27 27 26 25 24 24 24 24 24 24 26 30 33 33 33
33 32 31 32 33 34 34 33 33 31 29 27 26 25 24 23 22 22 22 22 20 19 18 16 15 14 15 16 18 19 20 21 21 22 23 24 25 26 27 28 29 30 30 30 29 28 28 27 27 28 29 29 29 28 27 27 26 27 28 30 32 34 34
35 34 33 32 34 36 37 35 34 33 31 29 27 26 24 22 22 22 22 21 20 18 16 14 13 14 16 18 19 21 22 23 24 25 25 26 27 29 30 32 33 33 33 32 31 30 29 29 28 28 29 30 31 32 33 32 30 30 30 31 32 34 35
37 37 36 35 34 37 40 39 37 35 33 30 28 25 23 22 22 23 22 20 19 17 15 13 14 15 17 19 21 22 24 25 27 28 29 30 31 32 33 35 35 35 34 33 31 30 29 29 30 30 29 29 31 33 35 35 35 35 34 33 34 35 35
35 37 37 36 36 38 38 37 37 36 32 29 26 23 22 22 22 22 21 20 18 16 14 15 16 17 19 20 22 24 26 27 29 30 32 33 34 35 36 37 36 35 34 33 32 31 29 29 29 31 31 30 31 32 33 35 36 37 37 37 37 36 36
28 29 30 32 35 37 36 34 34 33 30 27 25 22 22 22 22 22 21 19 17 16 16 17 17 18 20 22 24 26 27 29 31 33 35 37 38 38 37 36 35 34 33 33 32 32 31 30 30 31 31 32 32 32 33 34 35 36 37 39 39 38 38
22 22 23 26 29 33 35 34 31 31 31 28 24 22 22 22 22 22 20 18 17 17 17 17 18 20 22 23 25 27 29 31 33 35 37 39 39 38 37 36 35 34 34 33 33 33 33 32 32 32 33 33 33 33 33 34 35 35 36 38 40 39 40
23 22 22 24 27 30 32 31 30 32 31 28 26 25 24 24 23 22 20 18 17 17 17 18 20 22 23 25 27 29 30 33 35 37 38 38 38 38 37 37 36 36 35 35 34 34 34 34 34 34 35 35 35 34 34 33 34 35 35 37 39 40 41
24 24 23 24 27 29 27 28 31 32 30 28 27 27 25 24 22 20 18 17 16 17 18 20 22 23 25 27 28 30 33 34 36 36 36 36 37 37 37 37 38 37 37 36 36 36 36 37 36 37 37 37 38 37 37 36 35 34 35 36 39 41 41
25 25 25 25 27 27 24 26 30 31 29 28 28 26 24 22 20 18 17 16 16 18 20 22 23 25 27 28 30 32 34 34 35 35 35 35 35 36 36 36 37 37 37 37 37 37 37 38 38 39 39 40 40 39 39 39 37 36 36 36 38 40 40
26 27 25 25 26 25 23 26 31 31 28 27 26 24 21 19 18 18 17 17 18 19 21 22 24 25 27 29 31 32 32 33 34 35 35 34 34 34 34 34 36 36 37 36 36 36 36 37 38 40 41 42 42 42 41 41 40 39 38 38 38 39 38
27 27 25 25 26 24 23 28 32 30 28 27 24 21 19 18 18 18 18 18 19 20 21 22 24 25 27 28 29 29 30 32 34 34 34 34 33 33 33 33 34 35 36 36 35 34 34 35 37 39 41 42 42 43 43 42 41 41 40 39 39 39 38
27 27 25 24 25 25 25 30 32 31 30 28 23 20 19 18 19 19 18 19 19 19 20 22 23 24 24 25 26 28 30 32 34 34 34 34 33 33 33 32 33 34 35 34 33 33 32 33 35 37 39 41 42 43 44 43 42 42 41 40 40 39 39
25 25 22 22 24 26 30 34 33 30 28 25 21 20 20 19 18 17 17 17 18 18 19 19 19 20 21 23 26 29 31 33 34 35 35 34 34 34 33 32 32 32 33 32 31 31 30 31 34 36 37 39 42 44 44 42 42 43 42 41 40 39 39
22 22 21 23 26 30 34 35 32 28 24 22 21 20 18 16 15 15 15 16 16 15 15 15 17 19 21 24 27 30 32 34 35 35 36 36 35 35 34 33 31 30 31 30 30 29 29 30 32 35 35 36 40 44 42 40 41 41 41 42 41 40 39
18 19 21 23 28 33 32 26 23 22 21 19 18 16 14 13 12 12 12 12 11 12 13 15 17 19 22 25 28 31 33 34 35 36 36 37 37 37 36 35 33 31 30 31 30 31 31 31 32 35 34 34 36 38 37 36 38 38 39 41 42 41 41
17 19 22 27 33 34 29 21 18 17 16 14 12 11 10 9 8 7 7 8 9 12 14 16 18 20 23 27 29 31 33 34 35 37 38 38 38 39 38 37 36 34 32 33 33 33 34 33 34 35 35 35 36 37 37 37 37 36 38 40 39 40 41
20 24 28 32 31 29 24 19 16 14 13 11 9 7 5 2 2 4 6 8 10 12 14 16 19 21 24 27 30 32 33 35 35 37 39 40 40 40 40 39 38 36 35 35 35 34 35 34 34 36 37 37 39 40 40 40 38 37 38 38 37 38 39
26 30 32 29 25 21 19 15 13 11 9 7 6 5 3 4 5 6 8 9 10 12 14 16 19 22 25 28 30 32 34 36 36 38 39 41 41 41 41 40 39 37 36 36 35 35 34 33 33 35 36 36 37 38 38 39 39 37 37 36 37 40 40
32 31 28 24 21 19 17 15 13 10 8 7 7 7 7 7 8 9 10 10 11 13 14 17 19 22 26 29 31 33 35 37 38 38 39 41 42 42 42 41 39 38 37 36 35 33 32 31 30 31 32 32 32 33 34 36 37 37 37 37 39 42 42
Wind_Direction
163 161 162 157 136 120 107 97 92 86 83 86 90 94 97 94 90 88 84 80 73 43 353 314 306 314 315 311 307 301 295 289 280 272 268 266 258 250 246 243 246 249 252 256 256 269 283 276 262 252 247 246 249 253 254 256 261 268 273 277 280 280 277
179 184 188 184 166 146 126 113 106 98 92 93 96 99 100 100 99 96 94 91 88 82 70 59 42 15 352 332 320 311 302 296 291 283 274 270 267 263 258 251 250 252 252 254 255 256 265 274 276 271 266 260 256 253 254 256 258 263 270 274 278 280 281
193 194 195 196 191 176 158 143 131 118 106 102 106 108 107 105 102 99 98 96 93 89 81 71 58 34 11 351 332 317 308 300 292 288 283 278 275 272 269 264 260 259 258 257 256 256 257 263 273 279 280 278 271 262 256 256 256 259 265 269 271 274 276
206 207 203 205 203 191 181 178 171 157 138 120 117 119 119 117 111 103 96 91 86 78 68 60 49 33 21 12 359 344 326 310 296 287 283 281 280 279 277 275 273 271 270 270 267 265 265 267 270 273 274 277 278 273 268 265 260 258 261 263 264 266 269
215 218 213 211 211 201 196 199 200 200 198 177 153 142 138 138 128 115 104 92 77 60 45 33 25 20 13 9 4 357 350 339 323 302 288 281 278 277 277 277 276 275 273 273 273 271 270 270 271 273 274 276 277 274 273 275 270 263 259 260 262 264 265
219 225 220 212 214 214 210 212 212 213 217 215 207 201 185 175 164 136 111 81 58 40 27 16 9 7 4 2 358 351 348 347 341 330 316 299 288 281 277 274 273 272 270 268 268 269 269 269 269 271 273 275 276 274 274 276 275 271 264 261 265 267 268
223 228 227 219 216 219 219 219 219 221 223 225 227 232 229 220 224 230 288 353 12 9 2 355 351 352 352 352 349 345 343 343 340 337 332 321 309 299 289 280 273 271 270 268 267 265 267 269 269 271 274 275 276 276 276 276 275 274 270 267 269 269 271
227 232 234 231 224 223 223 222 223 224 227 230 231 237 241 240 244 251 272 305 321 334 337 334 334 337 339 339 339 339 340 340 337 335 331 323 313 304 299 293 286 279 275 273 271 268 265 266 269 272 275 280 282 282 281 278 274 272 271 271 271 270 273
226 230 234 234 229 227 226 225 226 229 232 236 237 239 243 245 251 257 267 283 296 307 312 314 319 322 325 328 329 332 336 337 335 331 327 323 315 305 296 290 287 286 284 281 278 273 266 262 263 268 271 275 280 284 285 283 278 274 272 272 271 269 271
228 229 233 234 232 230 230 228 227 229 232 237 241 243 244 247 252 257 265 274 284 293 299 304 309 312 316 319 322 326 329 330 331 328 324 321 317 312 305 295 288 284 282 283 282 279 272 261 256 257 263 267 271 276 282 284 282 279 276 275 274 271 270
234 234 235 237 235 232 232 231 228 228 231 237 243 246 245 247 251 255 262 270 278 286 293 299 302 305 310 314 317 321 323 325 326 325 322 319 316 315 314 311 305 296 286 281 279 278 277 271 262 255 254 257 263 268 274 278 280 280 279 278 274 270 270
240 240 240 240 239 235 233 232 230 229 231 236 242 246 247 247 249 252 258 265 273 281 288 294 297 299 304 308 313 316 317 319 320 320 319 318 317 315 314 315 316 314 306 294 285 278 273 274 272 267 260 256 257 262 268 274 277 278 277 276 273 269 268
245 245 245 244 242 239 235 233 232 230 231 235 240 244 246 247 248 251 254 259 266 273 281 286 288 291 297 302 307 311 312 314 314 314 315 314 314 312 311 311 312 314 313 307 300 291 281 274 272 272 271 266 262 261 264 268 273 274 272 273 275 275 272
249 249 248 247 246 243 239 236 235 235 234 236 239 243 245 246 248 251 253 257 262 267 274 278 281 285 291 294 299 304 306 309 310 310 311 311 310 310 309 309 309 309 308 306 305 302 296 288 279 273 272 272 271 268 266 267 269 272 273 273 273 274 275
251 252 251 249 247 244 241 238 237 238 238 238 241 244 246 248 248 250 252 256 261 267 271 274 277 281 284 288 294 298 301 304 306 307 306 306 306 306 306 306 307 308 307 306 306 304 302 298 292 285 278 274 274 273 272 272 272 273 274 275 274 273 274
251 252 252 252 250 246 243 241 239 239 240 241 244 247 248 249 249 250 252 255 261 266 270 273 276 278 281 287 292 297 300 302 303 303 303 304 305 305 305 305 305 306 307 306 305 305 303 299 296 292 287 282 277 274 273 274 276 277 276 276 276 276 274
255 253 253 253 253 251 248 245 243 241 242 243 245 247 248 248 247 249 251 256 261 265 268 270 272 273 278 286 292 295 299 301 301 302 303 304 306 306 305 305 305 306 306 304 302 302 301 298 294 291 288 285 281 277 274 272 273 277 279 277 275 275 275
260 258 256 255 255 254 252 249 247 245 244 245 245 246 246 245 245 247 251 256 260 263 266 266 268 273 280 287 291 294 295 297 298 300 303 304 305 305 305 305 306 308 308 306 303 300 299 296 293 288 285 283 282 279 276 272 270 271 273 276 275 274 274
264 264 263 259 256 255 253 252 250 248 247 245 245 245 244 243 243 246 250 255 258 261 262 264 269 278 286 290 294 296 297 298 300 301 302 303 303 304 305 305 307 309 309 308 306 303 300 297 292 287 284 281 280 279 277 274 272 270 269 271 272 273 273
265 267 266 263 261 258 255 252 250 248 247 245 243 243 242 241 242 245 249 253 255 256 258 263 272 280 285 291 295 299 301 303 304 303 303 302 303 304 304 306 307 308 309 308 306 304 302 299 295 289 285 282 280 279 278 276 275 273 271 270 269 270 271
266 266 267 265 264 260 256 252 250 247 244 242 241 239 238 239 240 244 247 250 250 251 255 263 270 276 284 292 297 301 303 304 303 302 302 302 303 304 305 306 307 307 307 306 304 302 300 299 296 293 289 286 282 279 278 277 276 275 274 273 270 269 269
271 271 271 270 269 266 262 257 252 247 241 238 237 235 234 236 239 241 243 244 245 248 254 262 269 278 287 295 299 301 302 301 301 300 301 301 303 304 305 306 306 306 306 305 303 301 299 297 294 292 291 288 286 283 281 279 277 276 276 275 273 272 271
276 277 276 275 274 273 270 262 253 248 243 236 232 230 231 233 236 238 238 239 242 247 255 264 274 283 290 294 297 298 298 298 298 298 299 301 302 304 305 305 305 305 303 302 301 299 298 295 292 290 289 288 286 284 282 281 279 278 277 276 275 275 273
276 275 273 274 274 273 271 264 252 243 238 230 224 224 229 232 233 234 234 235 241 250 259 269 277 282 287 291 293 294 295 296 297 298 300 302 303 305 305 305 305 304 303 301 300 298 296 294 292 290 288 287 285 283 281 280 279 278 277 276 276 276 274
277 273 270 272 273 272 269 263 249 236 228 220 217 220 225 228 230 230 231 236 244 254 263 270 276 280 285 288 290 292 295 297 299 300 302 303 305 306 307 307 306 305 304 302 300 298 297 295 293 291 289 287 285 284 282 279 278 277 275 275 275 275 274
274 274 273 274 275 271 266 255 239 225 216 211 213 216 219 223 226 229 233 240 248 257 264 270 274 279 283 287 290 293 296 298 300 302 304 305 306 307 307 306 305 304 303 302 300 299 298 296 295 293 291 289 286 285 283 281 279 277 275 273 273 273 273
269 270 271 273 272 268 261 246 227 214 208 207 209 210 211 217 225 232 238 244 251 258 263 269 274 279 283 288 291 294 296 299 301 303 304 305 306 306 305 304 302 301 300 299 298 297 296 295 294 292 290 289 287 285 284 282 280 278 277 274 272 272 273
267 267 268 270 267 261 250 231 214 206 204 205 205 205 208 215 226 234 240 246 253 258 263 269 275 281 287 291 294 296 298 300 301 303 304 305 305 304 303 301 300 299 298 297 296 295 294 292 291 290 288 287 286 285 284 282 281 280 278 276 274 274 274
264 266 267 266 261 252 235 216 204 199 198 199 202 206 208 215 226 232 239 246 252 258 266 274 281 288 293 296 298 300 302 303 304 305 306 306 305 303 302 301 300 299 298 296 295 294 292 291 289 287 286 285 284 283 282 281 281 280 278 276 275 275 274
260 263 264 261 255 244 222 204 197 197 198 199 201 205 207 214 222 230 238 246 254 264 274 283 290 295 299 302 304 306 308 308 309 309 309 309 307 305 304 303 302 301 299 299 298 296 295 292 290 288 287 286 284 282 281 281 280 279 278 277 275 274 274
258 261 258 253 249 234 211 198 196 197 199 197 195 199 206 213 221 231 242 252 264 275 284 292 298 302 306 309 312 314 315 315 314 313 313 311 309 308 307 306 306 305 304 304 303 301 299 295 291 289 289 287 285 283 282 282 281 279 279 278 275 273 272
255 252 245 241 232 214 198 192 191 191 191 191 192 197 206 215 226 239 253 265 277 286 295 304 308 312 316 319 320 321 320 319 318 317 315 314 313 312 312 312 312 311 308 307 304 301 297 294 290 289 288 286 284 283 283 283 282 281 280 279 277 274 271
245 243 240 233 216 200 189 179 174 174 176 182 189 199 211 224 239 253 266 279 293 302 309 315 318 322 324 325 324 324 323 322 321 319 317 317 316 316 317 317 316 315 312 308 304 301 296 292 289 287 285 281 278 280 282 282 282 281 281 279 277 275 272
231 231 223 211 199 190 183 173 170 174 180 188 200 212 222 234 250 270 292 307 314 317 319 322 325 327 328 327 326 325 324 324 322 321 319 319 318 319 320 319 318 316 314 309 305 301 297 293 290 285 281 277 276 279 281 281 280 280 279 277 275 273 271
214 205 193 185 178 172 170 174 184 192 194 195 196 199 207 237 302 325 331 327 322 323 324 326 328 330 329 328 327 327 326 324 324 322 320 319 319 319 319 318 317 316 313 309 305 301 297 294 289 284 280 278 278 280 280 279 278 278 276 274 272 270 269
187 178 170 166 163 159 158 163 169 169 165 157 138 118 77 27 9 354 342 333 328 328 328 329 330 331 330 329 328 328 326 325 324 323 320 318 318 318 318 317 316 314 311 308 305 302 300 296 292 287 284 283 281 280 278 275 274 273 271 269 267 266 265
165 160 155 155 157 155 150 149 145 134 120 104 85 66 45 30 17 3 353 346 341 337 333 332 333 334 332 330 329 327 326 325 324 323 320 319 318 318 317 315 313 311 310 309 308 306 303 300 296 293 291 288 286 284 280 275 272 269 267 265 264 265 265